STARLINK-36191

Last updated on Fri Dec 19 2025 00:02:09 GMT+0000 (Coordinated Universal Time)

1 67023U 25293W 25351.83335648 -.01168413 43184-3 -24630-2 0 9991 2 67023 69.9927 308.9930 0004143 267.9953 146.3289 15.98676289 2384
UTC large
Height (km)
Speed (km/s)
/
Latitude / Longitude
Inclination (degrees)
Orbital Period (minutes)
Azimuth
Elevation
Range (km)
Doppler Factor

Next 0 passes for location: London (51.5072 / 0.1276)

Sorry there are no passes over London.